Theta_e
291 292 290 290 292 294 290 288 292 295 296 296 295 293 292 292 292 295 296 299 299 296 292 292 292 291 292 294 295 297 298 297 297 298 299 299 300 300 301 301 302 303 303 305 304 303 304 304 305 302 299 297 296 294 293 292 291 291 292 293 291 292 291 291 290 290 289 291 288 286 287 287 288 290 290 290 290 290 289 288 288 287 287 287 287 287
294 290 287 288 289 290 286 288 295 296 297 295 294 293 292 293 291 295 295 298 299 295 292 293 293 292 292 294 296 297 297 296 296 296 298 299 300 300 301 301 302 304 304 304 303 303 303 303 304 302 298 297 295 294 293 292 292 292 292 292 292 292 291 290 290 293 289 288 288 287 287 286 288 288 288 289 290 289 289 288 287 286 286 286 286 287
289 287 289 289 289 289 286 289 296 295 294 295 294 293 292 291 294 296 297 298 297 296 290 292 293 292 293 294 296 296 296 298 299 299 299 299 300 300 301 301 302 302 302 303 305 304 303 303 303 302 299 297 296 295 294 292 292 292 292 291 291 291 291 290 291 289 289 288 289 286 286 287 287 288 290 289 290 289 287 286 286 285 284 285 285 284
287 287 289 289 288 289 291 293 295 293 293 292 292 291 289 293 292 287 295 296 295 294 291 292 292 293 294 295 295 296 297 297 299 299 299 300 300 300 301 301 301 302 302 302 304 304 304 302 302 302 300 298 295 294 293 292 293 293 294 292 291 292 291 290 293 295 291 291 290 289 288 289 289 289 290 289 288 287 286 285 285 284 283 283 283 283
285 288 288 288 289 292 292 293 293 292 289 289 292 291 291 292 293 293 292 294 295 295 294 293 290 291 291 292 292 295 297 296 297 299 298 299 299 301 302 302 303 303 303 303 304 304 304 302 301 301 301 298 295 294 294 293 294 294 294 294 292 292 291 290 295 292 292 291 289 289 290 291 290 289 288 288 287 287 287 285 283 283 283 283 283 283
287 287 287 288 289 291 292 287 290 292 288 289 289 291 293 294 293 293 293 293 290 289 292 292 284 285 289 291 293 293 293 293 295 295 296 297 298 299 299 300 302 303 303 304 304 304 305 305 303 301 300 298 296 295 295 294 294 294 294 293 291 290 290 290 293 291 291 291 290 290 289 288 286 286 285 285 284 284 283 282 283 282 282 282 282 281
286 288 286 285 288 288 290 288 286 289 290 289 289 293 295 293 294 293 292 292 286 285 290 290 286 283 284 288 290 291 292 293 295 294 295 296 297 297 298 299 300 301 302 302 303 303 304 305 304 302 299 298 297 296 295 294 293 293 293 293 291 290 290 291 291 292 292 287 288 289 288 287 287 285 284 283 284 285 284 283 282 281 281 281 281 281
285 285 286 283 287 287 287 289 287 289 291 287 292 295 294 293 292 293 292 288 286 290 290 288 286 282 281 285 291 290 291 292 293 294 295 295 296 297 298 298 299 300 301 302 302 303 304 304 304 302 300 299 298 296 295 294 293 293 293 291 291 292 292 290 291 289 289 288 288 288 288 289 285 285 284 284 285 285 285 283 282 281 280 281 281 280
284 283 283 285 285 285 284 283 285 285 290 288 293 296 293 293 292 291 290 288 287 290 284 288 286 283 280 284 292 292 289 290 292 294 295 295 296 296 297 298 298 299 301 302 302 302 303 304 303 304 302 301 298 296 295 295 294 293 292 293 292 292 292 290 291 290 290 292 289 289 288 287 286 286 286 286 286 284 284 282 281 280 280 280 280 279
282 284 281 283 282 283 283 284 283 288 289 290 293 294 293 292 290 290 288 288 282 280 282 287 285 280 279 280 287 291 290 290 292 293 294 295 296 296 297 297 298 299 300 301 303 303 303 304 305 305 303 299 298 296 296 294 293 292 292 292 292 291 290 290 290 290 290 291 291 288 287 286 285 285 284 283 283 282 281 281 280 279 279 279 279 279
285 287 284 278 281 285 282 285 283 288 292 295 297 294 292 290 287 286 285 282 279 271 279 284 282 282 276 279 286 287 288 290 291 290 290 292 295 296 297 298 298 298 299 300 301 301 302 303 305 303 301 298 296 294 293 293 293 292 292 292 291 291 290 290 290 290 289 288 288 287 286 285 284 283 283 283 282 281 281 280 279 279 279 278 278 278
284 282 279 281 284 279 284 288 290 289 292 295 291 292 292 289 289 287 285 282 278 277 279 282 282 282 277 278 283 288 289 289 290 289 290 290 293 295 296 297 298 298 299 300 300 301 301 300 300 300 297 296 294 293 292 292 292 292 292 292 291 290 289 289 289 289 287 287 286 285 285 285 284 284 284 282 281 280 279 279 278 278 278 277 278 277
284 283 283 284 285 285 284 292 291 293 291 293 293 292 287 282 284 281 283 280 279 276 280 280 281 283 281 283 285 285 289 290 288 290 291 290 291 293 295 296 297 298 298 299 300 301 299 299 298 298 296 295 293 293 292 292 292 292 292 292 291 290 289 289 288 287 287 286 285 285 285 284 284 283 283 282 281 280 279 278 278 277 277 277 277 277
282 282 284 285 284 286 287 289 288 290 289 292 291 286 283 280 277 277 275 275 276 279 280 282 282 281 282 285 284 285 285 285 286 286 287 287 287 290 294 295 296 297 298 299 300 300 298 298 297 297 295 295 293 292 291 291 292 292 292 292 291 289 289 289 288 287 286 285 285 284 285 284 284 282 282 281 281 279 279 279 278 277 277 277 277 276
279 278 283 284 282 285 284 287 289 289 290 288 286 285 282 278 277 274 275 275 274 274 277 281 280 278 281 284 285 284 284 283 283 284 285 287 287 288 290 293 294 295 296 298 299 299 298 297 296 295 294 293 292 291 291 291 291 292 293 292 290 289 288 288 287 286 285 284 283 283 283 283 283 282 281 280 281 279 278 278 277 277 277 277 277 277
277 277 286 287 286 285 284 285 285 288 288 287 285 284 281 279 279 277 275 270 269 274 274 278 278 279 285 284 282 281 281 284 283 284 286 287 288 290 291 294 295 295 296 296 297 297 296 295 294 293 292 292 291 291 291 291 292 293 292 291 291 289 288 288 288 286 285 283 283 283 283 283 284 284 282 281 280 278 278 277 277 277 277 277 277 278
280 281 287 287 287 286 285 284 284 286 285 288 284 279 281 282 280 273 272 274 273 271 272 272 279 282 282 282 283 280 283 283 282 282 284 285 286 289 291 291 291 294 295 295 296 296 293 290 291 292 291 291 291 291 291 292 293 293 292 290 289 288 288 287 287 285 284 283 283 282 282 281 280 279 278 278 277 277 277 277 277 277 277 277 277 278
281 282 287 286 285 286 283 284 285 282 286 283 280 281 282 281 279 277 274 268 267 270 271 273 276 277 278 277 280 282 282 283 281 282 282 284 285 288 287 289 290 292 292 292 292 292 292 292 292 291 291 291 291 291 292 292 293 292 292 290 289 287 286 285 285 284 283 283 282 281 280 279 279 278 278 278 277 277 277 277 277 277 277 276 277 278
283 281 285 285 284 286 285 286 285 284 283 285 283 282 282 276 277 276 275 269 270 268 267 268 274 273 276 279 279 280 282 285 283 282 283 286 286 287 287 287 286 286 287 290 290 290 290 290 290 290 290 289 289 289 290 290 290 289 288 289 288 287 286 285 285 283 282 282 282 281 280 279 278 278 277 277 278 277 277 277 276 276 276 276 277 277
282 280 280 284 284 285 284 282 275 278 281 281 281 279 277 277 273 275 273 272 272 267 266 271 271 274 278 279 280 280 282 284 283 283 284 285 285 285 285 285 286 286 287 289 289 289 290 289 289 289 289 288 288 287 287 287 287 287 286 286 285 285 285 284 283 283 281 281 281 280 279 278 278 278 278 277 277 277 277 276 276 276 276 276 278 275
281 280 276 282 281 283 280 278 276 277 275 277 276 275 277 275 277 277 272 273 275 265 265 267 267 272 277 277 279 281 280 283 284 286 285 285 285 285 285 285 285 286 287 287 288 287 287 287 286 287 286 286 286 286 286 287 287 286 286 285 285 284 283 282 282 281 281 281 280 280 278 278 278 277 277 277 277 277 276 277 278 276 276 277 276 276
275 273 276 275 277 276 277 279 278 277 277 276 276 276 275 273 271 272 271 271 265 271 266 263 269 272 277 278 279 280 279 279 281 284 285 283 283 284 285 284 284 285 284 285 285 285 285 285 285 285 285 285 286 286 286 286 286 285 285 285 284 284 283 282 281 281 280 280 280 279 278 277 277 277 277 277 277 277 277 276 276 276 277 275 276 275
280 275 276 273 274 277 277 278 276 277 277 276 276 277 273 272 269 264 268 270 267 268 267 267 268 269 278 278 278 277 278 278 278 280 283 282 282 283 284 284 284 285 284 284 284 284 284 284 284 284 285 285 286 286 285 285 286 286 285 284 284 284 282 282 282 281 280 280 279 278 277 277 277 277 276 276 276 276 276 276 276 277 275 275 275 276
282 265 270 269 270 275 276 273 274 271 276 277 276 274 276 277 277 271 272 272 267 266 268 267 266 271 277 278 277 277 277 278 278 278 280 281 282 282 283 283 283 285 284 283 283 283 282 282 283 284 285 285 285 285 285 286 285 285 285 284 283 283 282 281 281 281 280 279 279 278 277 277 276 276 276 276 276 276 276 276 276 277 275 276 275 275
277 272 275 264 259 262 267 271 274 273 275 272 277 275 275 275 273 269 266 264 271 266 268 266 266 270 281 277 276 276 276 277 278 277 279 281 282 282 282 282 282 283 283 283 283 282 282 283 284 285 285 285 285 285 285 285 285 285 284 284 283 282 282 281 281 280 280 279 278 277 277 276 276 276 276 276 276 276 276 276 276 277 276 275 275 275
276 270 268 265 265 263 264 264 267 270 274 274 275 275 276 274 273 274 274 265 268 268 268 269 264 273 276 276 278 278 277 278 278 276 278 280 281 282 282 281 281 281 283 282 282 282 283 283 283 284 284 285 285 286 286 285 285 284 284 283 282 282 281 281 280 280 280 279 279 277 277 276 276 276 276 276 276 276 276 276 275 276 276 275 275 275
268 265 263 265 266 265 263 265 270 275 275 274 275 275 275 274 274 275 270 267 271 264 266 269 271 275 279 277 276 276 276 278 280 280 280 280 281 280 280 281 282 282 282 282 282 282 281 282 284 285 284 285 285 285 285 285 285 284 284 283 282 282 282 281 280 280 280 279 279 278 277 276 276 276 276 276 276 276 275 275 275 275 275 276 275 274
265 272 265 262 265 270 270 271 272 274 273 272 275 276 275 273 274 273 273 271 272 272 269 270 270 275 278 276 276 278 277 275 275 277 277 278 280 282 282 281 284 281 282 281 281 282 284 284 284 284 284 284 285 284 284 284 285 285 284 283 282 282 281 281 280 280 280 279 279 278 278 277 276 276 276 276 276 276 276 275 275 275 275 276 274 274
270 270 268 268 269 269 269 270 270 270 272 273 273 273 274 274 273 273 270 274 275 272 275 273 270 272 276 276 277 278 279 280 278 277 278 280 281 280 281 282 282 283 282 282 283 283 284 284 284 284 284 284 284 284 284 284 283 282 281 281 282 282 281 281 280 280 280 279 279 279 278 277 276 276 276 276 276 276 276 276 275 275 275 275 275 275
273 267 265 265 267 268 269 269 269 270 269 271 270 271 274 273 274 275 274 272 274 275 274 274 272 275 278 280 282 283 281 278 277 277 278 279 281 282 282 282 283 283 283 283 284 284 284 284 284 284 284 284 284 284 284 284 283 283 283 283 282 282 281 281 280 280 280 279 279 279 278 277 277 276 276 276 276 276 275 275 275 275 274 274 274 273
277 269 274 262 268 269 268 269 268 266 267 267 270 271 272 272 273 273 272 271 271 273 275 275 275 278 284 283 284 283 279 278 278 278 280 279 279 281 282 283 283 284 284 284 284 284 283 283 283 283 283 284 284 284 284 284 284 283 283 283 282 282 281 281 280 280 280 280 279 278 277 277 277 276 276 276 276 275 275 275 274 274 273 273 273 272
272 270 265 264 271 269 268 264 267 262 267 265 267 270 268 269 270 269 273 275 274 276 270 274 273 277 283 279 280 279 279 279 280 280 280 279 279 281 282 283 284 284 284 284 284 283 282 283 283 283 284 284 284 284 284 284 284 283 284 283 282 282 281 281 281 280 280 280 279 278 278 277 277 276 276 275 275 275 275 274 274 273 273 272 272 272
266 270 270 267 269 263 268 263 264 264 266 271 272 274 275 272 272 273 273 274 279 278 275 272 278 281 280 280 281 281 279 278 277 279 280 279 278 280 282 284 284 284 285 285 284 284 284 284 284 285 285 284 284 284 285 285 284 284 284 283 283 282 281 281 281 281 280 280 279 278 278 277 277 276 276 275 275 275 274 274 274 273 272 272 272 272
270 269 263 264 271 264 266 260 264 268 263 263 271 273 274 273 273 275 276 277 277 281 280 280 284 280 276 278 280 279 278 278 279 280 280 282 280 279 281 283 284 285 284 285 285 285 285 285 285 285 285 285 285 285 285 285 285 285 284 283 282 282 281 281 281 281 281 280 279 278 278 277 277 277 276 275 275 275 274 274 274 273 273 272 272 271
268 264 263 261 268 269 261 265 268 262 266 273 274 272 272 272 274 277 278 276 276 279 281 280 281 280 281 280 280 280 280 279 277 278 279 278 279 281 281 281 283 284 285 285 284 284 285 285 285 285 284 284 284 284 284 284 284 283 283 282 282 282 281 281 281 280 281 280 279 278 278 277 277 277 276 275 275 274 274 274 274 273 272 272 272 271
266 267 267 265 261 264 263 259 262 265 268 271 270 273 273 273 273 275 276 277 277 278 279 280 281 283 282 280 279 279 279 279 279 280 280 281 280 282 281 282 282 283 284 285 286 286 285 285 285 285 285 286 284 284 284 284 284 283 283 282 283 281 281 281 281 281 280 280 279 279 278 278 277 277 276 275 275 274 274 274 274 273 272 271 271 270
274 269 268 268 264 267 260 258 269 269 275 275 274 275 273 275 274 276 273 275 275 277 278 279 281 280 280 279 278 278 276 277 279 283 282 283 282 281 284 284 284 283 284 285 286 287 287 286 285 286 286 285 284 284 284 284 284 284 282 282 282 282 281 281 281 281 281 281 280 279 279 278 278 277 276 276 275 275 275 274 273 273 272 271 271 271
276 275 272 273 268 260 267 262 263 262 262 268 275 276 276 275 276 274 276 275 277 274 277 279 278 279 278 276 276 275 276 279 277 277 281 281 278 281 281 282 282 281 282 283 282 284 284 284 285 284 284 284 283 284 284 284 284 283 282 282 281 281 281 281 281 282 281 281 281 280 279 278 278 278 277 276 276 276 275 274 273 273 272 272 271 271
273 273 272 271 266 265 263 263 260 263 268 271 277 280 278 275 276 272 274 270 276 275 276 278 279 278 277 277 279 277 278 276 274 277 280 278 278 278 278 280 281 281 281 282 283 283 283 284 284 284 284 284 283 283 283 283 283 283 283 282 281 281 281 281 282 282 282 282 281 280 279 278 278 278 277 276 276 276 275 274 274 271 271 271 271 271
270 263 267 267 264 260 257 263 263 260 266 277 274 274 275 273 276 276 269 267 281 277 276 278 278 278 277 276 276 278 277 277 278 279 278 280 279 279 278 279 279 279 279 280 281 282 283 282 282 282 282 283 284 283 283 283 283 283 283 282 282 281 282 282 283 283 283 282 281 280 279 278 278 278 277 277 277 276 276 274 272 272 271 271 271 271
269 266 265 273 261 265 271 261 260 269 274 276 275 274 274 273 277 271 268 277 277 277 277 278 278 278 277 276 278 279 280 282 279 280 279 278 279 281 279 278 279 279 279 278 280 281 281 281 283 283 283 284 284 283 283 283 283 283 283 282 282 282 283 284 283 282 282 281 281 280 279 278 278 278 277 277 277 276 273 273 273 271 271 271 269 269
262 260 263 261 262 266 263 268 271 270 276 275 275 276 274 277 269 264 276 278 277 277 277 278 277 277 277 279 279 280 281 280 279 279 279 280 279 280 280 279 279 279 278 278 279 280 281 280 281 282 282 282 283 283 283 283 283 283 283 282 282 284 284 283 282 282 281 281 281 280 279 278 278 277 277 275 274 274 273 271 271 271 270 268 268 268
273 270 266 267 264 261 259 262 263 266 274 277 277 277 277 275 276 275 277 278 277 277 278 277 278 277 277 279 279 280 280 281 280 280 280 280 279 280 280 279 279 280 279 279 279 278 280 280 281 281 282 282 282 282 283 283 283 283 283 282 284 284 283 282 282 281 281 281 280 279 279 278 277 276 275 274 274 274 272 269 268 268 268 269 268 268
270 271 261 259 268 270 261 263 267 276 274 279 282 279 277 280 278 276 280 283 279 276 278 278 278 278 278 280 279 279 279 279 280 279 279 279 279 278 278 278 278 278 277 277 278 278 279 280 280 281 280 281 281 282 282 283 283 283 282 283 284 282 281 281 281 281 280 280 279 279 278 277 276 275 274 274 273 272 272 269 267 267 268 267 268 267
275 274 272 272 271 271 270 274 278 274 274 279 281 279 277 278 278 276 279 281 281 279 277 278 280 279 278 279 279 279 279 278 280 280 279 282 280 279 280 280 279 279 278 278 279 278 278 280 279 279 279 280 281 281 282 283 283 282 282 284 282 282 281 280 279 280 279 279 278 278 277 275 274 273 272 272 272 272 271 268 266 268 264 266 265 266
275 275 272 275 274 274 276 280 279 278 276 277 280 281 280 278 276 276 279 280 280 279 278 281 279 279 278 278 279 278 279 280 279 280 279 279 279 279 278 278 278 277 277 277 278 278 279 279 279 279 279 279 280 281 281 282 283 283 284 282 282 281 281 279 279 278 279 279 278 277 275 274 272 270 271 270 270 273 271 271 268 269 266 266 266 265
270 270 274 275 274 275 273 274 277 280 280 279 281 282 281 280 281 278 276 278 281 279 278 279 279 279 278 277 279 281 281 280 279 280 279 279 279 279 279 279 279 278 278 279 279 277 278 278 279 279 279 280 279 280 281 281 283 284 281 281 281 280 280 279 279 279 278 278 277 275 274 275 274 271 269 267 269 268 269 269 268 269 267 266 267 265
276 273 277 273 272 275 278 275 275 276 276 277 279 280 281 284 283 281 282 283 282 279 279 281 279 279 277 278 279 279 281 281 280 282 282 281 281 280 279 279 279 278 278 278 278 278 277 279 280 279 279 280 280 280 281 281 282 282 280 280 280 279 279 279 278 279 278 277 276 275 274 275 273 273 271 269 269 269 268 267 268 269 269 269 268 268
274 278 272 272 277 277 278 281 282 281 282 283 281 279 282 283 283 282 280 280 280 280 281 280 279 282 279 281 280 279 280 281 281 281 281 282 281 280 280 280 279 278 278 277 277 277 280 279 279 280 280 281 280 280 280 280 281 280 279 279 278 278 279 279 278 278 276 276 274 275 273 274 273 273 272 270 268 269 270 270 268 269 270 268 270 270
276 274 273 275 273 272 275 280 278 277 277 281 277 278 280 281 281 281 279 278 279 279 280 280 280 278 280 280 280 280 280 282 282 280 280 281 281 281 280 279 278 278 278 277 277 277 278 278 279 280 280 280 280 280 280 279 280 279 278 277 278 278 279 278 277 276 276 275 275 275 273 272 272 271 271 271 270 269 267 269 271 271 270 269 270 272
278 278 277 276 274 276 280 280 278 281 281 283 284 280 278 277 278 279 279 280 280 280 280 279 279 279 278 279 279 280 280 281 282 280 279 280 281 281 280 279 279 278 278 277 275 275 276 278 278 278 278 280 279 279 279 279 279 279 278 277 278 279 279 278 278 277 276 274 275 275 274 273 272 271 270 270 270 269 268 267 268 274 275 275 272 273
Wind_Speed
0 5 3 5 4 5 3 1 5 9 9 9 9 11 10 9 7 3 3 0 3 1 7 4 4 5 6 6 4 4 3 2 1 3 3 3 3 3 3 4 4 4 4 3 4 5 5 5 4 4 3 4 3 3 4 5 4 4 5 5 5 4 3 4 4 2 2 1 1 3 4 6 4 5 4 5 5 6 5 5 5 5 5 5 5 5
2 5 2 2 3 3 1 1 9 13 9 10 10 11 8 10 7 2 3 2 4 2 2 3 4 5 4 5 5 4 4 5 6 5 4 4 4 4 5 5 5 3 1 3 3 3 5 5 4 4 4 4 5 2 3 5 6 5 4 5 5 3 3 4 4 3 2 1 1 3 4 5 4 4 5 5 5 5 5 6 5 5 5 5 6 5
3 4 1 4 3 2 1 3 10 14 13 8 8 9 10 6 7 6 3 4 7 4 1 4 1 2 3 5 4 5 5 3 5 5 3 5 4 4 5 5 4 3 3 4 4 4 5 5 5 5 5 5 4 5 5 4 4 4 4 4 4 4 4 3 3 3 1 1 2 2 3 5 5 3 4 6 4 5 7 6 5 5 5 5 6 5
7 1 3 5 2 1 5 2 11 11 8 10 6 8 9 10 12 4 2 4 6 2 3 1 1 2 2 2 4 5 6 3 2 4 4 3 6 6 6 6 6 6 5 6 6 6 6 6 5 5 6 6 3 4 3 3 5 4 4 4 3 4 3 3 2 2 4 6 5 7 6 5 5 6 5 6 5 5 7 7 5 5 4 5 5 4
3 1 3 1 1 2 9 6 13 10 8 3 7 7 7 10 2 8 7 2 1 4 4 4 3 4 1 2 3 3 4 4 5 4 3 3 3 4 4 5 6 7 7 7 6 5 5 6 7 8 6 5 5 5 5 5 5 5 6 6 5 4 4 3 3 5 5 6 6 6 7 7 8 5 5 5 5 4 4 4 6 5 4 5 4 4
5 4 2 2 3 4 10 5 6 13 7 3 1 4 12 9 12 10 9 8 2 3 1 2 3 3 2 4 4 3 3 5 3 6 7 7 6 6 7 7 4 5 5 7 6 6 6 6 5 4 5 6 5 5 6 5 5 4 5 3 3 3 3 4 4 5 5 5 7 5 5 4 5 5 3 3 3 2 4 4 2 5 5 3 4 5
1 5 3 2 3 6 4 7 4 1 10 8 2 3 2 1 15 15 11 7 4 5 2 2 3 1 2 4 1 3 4 6 4 8 9 8 8 8 7 7 7 6 5 4 3 3 5 5 5 4 5 6 6 5 3 3 4 3 2 3 3 4 3 3 4 4 5 4 4 4 3 4 5 6 1 1 2 6 4 4 5 4 3 3 5 5
5 7 5 3 5 5 4 8 6 2 11 4 3 9 7 9 12 12 10 3 3 3 1 4 2 1 3 2 2 0 3 5 7 10 10 9 8 8 8 8 7 7 6 6 6 5 5 6 8 9 7 6 7 5 5 4 3 4 4 4 4 3 3 3 4 4 3 6 4 5 5 4 4 5 5 4 5 4 3 5 4 3 3 4 5 4
4 5 6 4 5 6 5 0 4 2 4 3 4 6 6 4 5 6 7 6 2 5 1 2 2 0 2 3 2 2 3 7 11 11 11 10 9 9 9 9 7 7 7 7 7 7 7 7 8 7 7 6 5 5 6 6 5 3 3 3 3 4 4 3 4 4 3 4 5 6 6 7 4 6 6 5 4 4 3 5 3 3 3 5 4 4
1 1 4 1 3 4 1 2 2 0 5 1 6 10 6 6 5 6 6 7 2 4 1 1 2 1 5 4 1 2 2 8 10 5 5 10 12 11 10 8 7 6 5 5 6 6 5 5 6 5 4 5 4 4 4 4 4 3 3 4 5 4 3 3 4 5 5 5 6 7 6 9 6 6 5 4 5 3 3 4 3 3 4 4 4 3
1 1 4 5 3 1 1 2 1 0 4 8 9 10 6 5 3 3 5 3 4 2 2 1 2 1 2 4 5 5 7 6 4 4 1 3 8 10 11 11 9 8 7 6 5 4 4 4 6 6 6 5 4 3 4 5 5 4 4 5 6 3 3 4 5 6 6 5 5 7 7 8 8 5 6 6 4 3 3 4 3 3 3 3 3 3
4 2 4 1 2 2 0 2 3 0 3 4 4 6 8 5 4 5 4 4 3 2 1 1 0 1 3 3 2 7 3 2 3 3 3 2 6 8 9 10 9 8 7 6 5 4 5 4 5 5 6 5 5 4 4 4 4 5 5 6 8 3 4 5 5 7 6 6 6 6 7 7 6 7 5 6 5 3 3 3 3 2 3 2 2 2
10 6 1 5 2 6 4 6 2 3 2 5 8 7 6 2 3 1 1 1 1 2 1 2 2 1 7 7 2 1 7 4 3 3 5 4 4 5 7 8 6 7 7 8 7 6 6 7 7 6 6 5 6 6 5 6 6 5 6 7 9 5 4 6 5 7 6 6 5 7 7 6 5 5 5 5 5 3 4 4 3 2 2 1 3 3
3 1 7 7 2 3 2 5 1 3 1 7 7 4 4 4 2 3 2 2 2 2 2 0 0 2 3 6 3 4 2 2 2 3 4 5 7 5 4 5 6 7 9 9 8 6 7 7 6 6 7 7 6 6 6 6 6 5 5 6 8 6 4 5 7 7 8 6 5 5 6 6 6 5 5 4 5 3 4 4 3 3 3 3 2 2
3 2 6 5 2 4 3 2 1 2 3 2 1 0 3 3 3 3 2 3 2 2 2 2 1 4 4 2 1 4 4 5 3 3 4 4 6 6 4 4 5 5 5 6 7 7 8 8 7 7 7 7 6 7 6 6 6 6 7 7 9 9 5 6 7 7 8 6 5 5 6 6 5 6 5 4 4 5 4 3 3 3 2 4 2 2
1 1 5 0 3 3 3 1 1 2 5 1 1 1 5 0 2 5 3 3 2 2 1 1 4 1 3 1 4 2 4 3 3 3 4 4 5 1 3 5 6 6 6 5 6 7 6 6 6 6 6 6 6 7 6 6 6 7 7 7 7 9 8 6 7 7 7 6 5 6 7 6 5 5 5 5 4 3 3 3 3 3 2 2 2 1
1 5 3 6 3 3 3 2 2 1 2 3 1 1 1 1 8 6 2 2 1 4 3 1 6 5 6 2 1 4 4 4 3 4 4 4 4 1 2 3 4 5 6 6 7 7 6 4 4 5 6 6 6 7 8 7 7 8 9 8 9 7 6 7 7 7 6 6 7 5 6 5 5 5 5 6 4 4 3 3 3 3 2 2 2 2
3 3 1 3 3 0 2 1 1 3 1 4 3 2 1 2 4 3 2 2 3 2 3 1 2 6 4 4 3 3 3 6 3 2 3 2 2 2 0 1 3 4 5 4 4 4 6 7 8 6 5 7 9 8 7 7 5 7 8 9 11 9 9 6 7 7 6 7 7 6 5 4 4 5 5 5 5 3 4 3 3 2 3 2 1 1
1 5 2 0 2 4 2 0 3 2 2 2 5 3 0 0 0 3 4 1 1 1 2 2 2 4 4 5 2 2 4 6 5 2 2 1 1 1 1 1 0 1 3 4 5 5 5 6 6 7 7 4 4 4 5 6 7 6 5 5 8 9 8 8 6 5 4 5 6 5 5 5 5 4 4 3 4 3 4 3 3 3 3 1 1 0
1 3 3 1 1 3 3 3 2 7 5 2 2 3 1 3 2 1 0 1 3 0 2 2 2 3 6 4 6 4 7 6 4 3 4 5 4 3 3 3 3 4 4 5 5 5 6 6 6 6 7 7 6 6 6 6 6 7 6 7 6 6 6 6 6 6 6 5 6 5 4 4 4 4 4 4 4 4 4 3 3 3 2 2 0 1
0 1 3 4 3 1 3 4 1 1 2 6 4 2 2 3 1 3 2 2 0 3 2 0 2 3 4 4 3 2 5 7 7 7 5 5 4 4 3 3 4 4 4 4 4 4 4 4 4 4 4 5 5 5 5 6 8 7 6 7 7 10 8 6 5 6 6 6 5 6 6 5 5 4 3 3 3 4 3 3 3 2 2 1 1 1
2 3 4 2 6 3 2 0 0 1 1 1 1 2 3 3 1 1 2 1 2 1 1 2 4 6 7 2 3 2 1 3 5 5 5 4 4 4 4 4 3 3 2 2 2 2 3 3 4 4 5 5 6 6 6 5 6 7 7 7 7 6 7 8 6 6 7 5 6 6 6 5 4 4 4 4 3 3 3 3 3 2 2 2 1 2
1 3 7 5 1 1 2 1 1 0 1 1 1 0 2 2 5 3 1 1 1 1 2 1 0 4 1 2 3 3 2 2 1 3 5 4 4 4 4 2 1 1 1 1 2 2 3 3 4 4 5 6 6 7 6 6 7 8 7 7 6 8 6 5 7 5 6 6 6 5 5 5 4 4 4 4 3 3 3 3 3 2 3 2 2 1
5 4 4 2 5 3 2 1 0 3 1 1 1 1 1 1 0 2 1 3 4 0 0 0 0 4 1 1 3 4 4 4 4 3 4 4 3 3 3 2 1 1 1 1 2 3 3 4 4 5 5 6 6 7 8 8 6 6 6 6 6 6 7 6 6 6 6 5 5 5 5 5 4 5 4 5 4 4 3 3 3 2 3 2 1 1
1 1 7 2 2 4 2 2 1 1 1 0 0 0 1 2 3 2 4 0 0 3 2 3 1 2 1 1 2 2 2 3 4 3 4 4 4 3 3 3 2 1 1 1 3 3 4 4 5 5 6 7 7 6 7 7 7 7 6 5 6 6 6 6 5 6 5 6 7 5 5 5 5 5 5 5 4 4 3 3 3 3 3 2 2 1
4 1 2 4 5 3 1 1 4 4 3 1 0 0 0 2 4 1 0 2 1 0 2 1 4 9 6 3 1 1 1 3 3 3 1 3 3 4 4 4 3 3 4 4 3 4 5 5 4 5 6 6 7 8 8 6 6 5 5 5 5 7 6 6 5 6 6 6 7 6 6 6 5 6 6 6 5 4 4 4 3 3 3 3 2 0
4 1 3 4 5 3 4 2 1 1 1 1 1 1 2 1 1 2 4 2 3 2 2 7 5 7 12 5 5 3 1 3 2 1 2 3 4 4 3 4 4 5 4 5 5 4 3 4 8 8 8 8 7 6 6 7 7 6 6 6 5 5 7 7 7 6 6 6 6 6 6 6 6 6 6 6 5 4 3 3 3 3 3 3 2 1
3 3 1 7 3 0 1 1 1 1 0 1 0 1 0 2 3 3 3 3 5 3 7 3 2 1 9 3 3 4 3 3 5 5 4 5 6 6 5 4 4 3 3 3 4 7 10 9 7 8 8 7 6 5 5 5 6 8 8 8 6 6 6 6 6 6 6 6 6 6 7 6 6 6 6 5 4 4 4 3 3 3 2 2 2 1
2 3 2 2 1 2 2 3 3 1 1 1 1 1 1 3 2 6 4 3 5 4 10 2 2 2 8 5 5 6 6 3 2 4 7 5 1 2 3 5 6 7 6 7 9 9 9 10 9 8 7 7 5 7 7 6 5 4 4 4 5 6 7 7 7 7 6 6 7 7 6 6 5 4 5 4 3 3 3 3 3 3 3 2 2 1
4 1 2 1 1 0 0 1 2 0 1 1 4 6 5 5 7 7 5 2 6 6 2 1 3 12 13 13 10 13 5 6 4 1 0 2 5 6 5 6 8 9 10 11 11 11 9 8 7 7 7 7 9 8 8 7 7 7 8 7 7 7 5 7 7 8 7 7 8 6 5 6 5 5 5 4 4 4 4 4 3 3 3 2 1 1
0 0 3 1 1 2 2 2 2 4 0 5 5 3 3 3 3 4 1 1 2 6 9 7 7 13 11 6 12 5 1 1 2 5 7 5 4 5 7 8 9 10 10 10 8 8 7 6 6 6 9 10 10 10 9 9 8 7 6 6 7 8 7 7 7 7 8 9 6 6 6 6 6 5 6 5 4 3 4 4 4 3 3 2 2 1
4 0 1 1 1 2 1 5 3 3 0 5 9 9 5 4 4 5 5 8 6 8 1 1 2 9 9 1 3 3 0 2 6 6 6 6 6 5 8 9 9 10 10 10 9 6 6 8 9 11 13 12 10 9 9 9 8 8 9 8 8 8 7 7 7 8 8 7 6 6 7 6 6 6 6 4 5 5 4 4 4 4 3 3 2 2
1 6 2 1 1 2 2 2 5 8 5 7 10 11 14 9 3 0 2 3 9 4 4 4 11 5 3 0 0 1 2 4 5 7 8 5 5 7 10 11 11 10 10 10 10 10 11 12 14 14 12 9 10 12 12 10 9 11 10 9 8 7 8 8 8 8 8 7 6 7 7 6 7 7 6 5 5 4 4 5 4 4 3 3 3 2
1 4 2 0 0 2 4 5 2 2 2 4 2 1 3 7 11 8 7 10 9 8 7 7 11 2 1 1 4 6 3 4 3 4 4 5 5 8 9 9 9 9 8 8 9 11 12 10 9 11 12 13 12 11 9 9 11 9 6 7 7 9 8 8 8 8 8 7 7 7 7 7 7 7 6 4 5 5 5 5 6 4 4 3 2 2
2 4 1 1 1 1 4 2 2 1 9 5 0 1 1 2 5 11 11 7 6 10 10 11 14 11 12 7 6 7 6 6 4 6 9 7 6 7 9 11 11 11 12 11 10 10 11 12 11 10 9 10 11 9 8 8 7 5 6 8 8 8 9 8 8 8 8 8 7 6 7 7 7 7 5 5 5 5 6 6 5 4 4 4 4 4
3 5 3 2 1 1 2 2 1 3 3 4 2 1 1 1 1 0 7 12 13 13 14 13 17 15 8 6 7 6 6 8 8 8 11 10 10 10 9 10 11 10 11 12 13 13 13 13 15 15 15 12 8 9 10 11 8 8 8 7 9 8 8 9 9 9 7 8 8 8 8 8 8 7 5 6 5 6 7 6 6 5 4 3 3 3
9 5 2 1 0 1 1 1 9 8 8 2 2 0 5 3 5 3 2 4 5 7 11 11 13 11 7 6 5 5 3 3 6 10 6 10 8 10 12 12 9 10 11 10 10 13 12 11 11 13 10 8 10 11 11 9 9 9 8 8 8 9 8 8 9 10 10 10 9 9 8 8 8 8 7 6 7 7 8 7 6 4 4 3 4 4
1 1 2 2 1 3 0 4 5 4 1 5 3 3 3 1 3 1 1 6 2 3 6 9 7 8 6 4 3 3 1 1 6 3 1 1 2 6 7 8 6 5 6 7 5 6 6 7 8 6 7 8 9 11 9 9 11 10 10 9 8 9 9 10 11 10 10 11 10 9 9 9 9 8 7 7 9 9 8 5 4 5 5 6 5 5
6 7 6 4 2 1 2 1 2 1 3 5 3 1 1 3 3 1 3 4 4 3 6 8 8 7 5 2 0 2 2 1 4 5 8 4 2 2 4 6 8 8 8 8 9 9 8 9 10 9 8 9 11 10 8 10 11 11 11 10 10 10 10 12 12 11 12 12 9 8 8 8 8 8 8 9 9 8 7 7 7 4 4 5 4 4
7 4 1 2 2 1 4 1 4 5 3 1 4 2 1 3 2 1 3 3 2 4 6 7 7 6 4 3 4 3 3 1 5 5 2 2 1 3 3 5 5 5 7 7 6 7 6 5 5 6 9 11 12 9 10 11 11 12 12 11 9 11 13 14 15 13 10 8 7 7 8 7 9 8 9 9 8 7 7 4 3 5 5 4 5 5
1 1 4 6 4 3 4 3 3 8 7 6 4 3 2 2 2 2 2 2 2 4 7 7 7 6 5 6 5 3 8 7 3 1 2 3 6 8 4 5 7 5 6 5 7 5 5 7 10 12 14 12 10 10 11 11 12 12 11 11 11 14 17 13 9 8 9 7 7 7 8 8 8 10 8 7 8 6 4 5 5 5 5 5 4 3
1 3 1 4 3 4 5 3 7 8 9 4 1 3 3 2 0 2 3 1 3 4 6 8 6 5 7 8 8 8 7 5 5 6 7 6 6 8 8 7 6 5 5 5 5 5 5 6 7 6 6 6 9 10 11 12 13 12 11 11 14 19 11 7 9 8 7 8 8 8 8 8 8 7 7 5 5 6 6 4 4 5 5 4 4 4
8 6 6 5 3 3 2 0 4 2 1 5 8 2 0 2 6 4 1 2 4 2 7 6 7 5 8 7 9 9 8 9 7 8 8 8 7 8 7 5 6 6 5 2 2 4 6 6 8 9 9 7 8 9 10 12 13 11 11 13 19 10 7 9 8 8 8 8 8 8 9 8 8 8 6 6 7 6 6 4 4 4 4 5 4 4
3 1 1 4 6 6 4 4 5 9 2 7 9 6 6 10 2 3 3 1 2 4 5 5 6 8 9 7 7 8 9 8 10 8 6 7 6 6 5 5 5 5 4 4 3 4 5 6 5 5 5 6 7 9 10 13 13 11 12 18 9 6 7 7 8 7 8 8 8 8 8 7 7 7 6 7 6 6 6 5 5 4 5 5 5 6
9 4 7 3 6 6 8 10 10 3 3 7 8 5 4 5 1 3 2 1 1 5 5 3 6 6 10 9 7 6 6 7 10 8 5 8 7 6 7 6 5 4 4 4 4 4 4 5 5 4 4 4 7 8 10 10 13 12 16 12 7 9 10 9 8 9 8 9 8 8 7 6 6 7 6 6 7 7 6 5 5 5 4 4 4 5
2 1 2 2 5 5 8 12 5 3 4 7 9 9 6 4 3 3 5 4 7 6 8 7 5 5 5 6 4 6 8 8 6 8 7 7 7 9 5 6 5 4 4 3 3 4 6 5 4 5 6 5 6 8 8 10 10 15 16 6 8 8 9 9 9 9 10 8 8 8 7 7 6 5 6 6 6 7 6 7 7 7 5 6 6 5
3 2 1 2 2 1 5 3 4 10 6 7 10 8 6 7 9 5 4 7 9 4 5 6 6 4 4 6 8 9 9 6 7 9 7 6 8 8 7 6 7 4 5 6 6 5 5 6 7 8 8 9 8 8 8 10 10 9 4 8 7 8 8 9 10 10 8 9 8 6 7 8 7 7 5 5 5 5 6 6 6 6 6 6 7 5
2 4 2 4 2 4 9 3 6 5 6 6 7 6 9 12 11 9 12 9 7 4 5 7 4 5 3 5 9 8 11 8 6 11 9 7 8 6 6 6 7 5 5 5 4 5 5 7 8 8 9 10 9 8 8 9 10 8 5 5 7 8 8 9 10 10 9 9 8 7 8 8 8 9 7 7 7 7 6 5 6 7 8 9 8 7
1 6 4 5 6 8 9 13 14 9 12 14 10 11 12 10 8 7 6 7 7 9 12 9 7 9 6 11 5 6 8 12 9 9 9 10 8 7 7 7 5 6 4 4 5 6 8 7 8 8 9 9 7 8 8 9 8 6 7 6 7 9 10 10 8 7 6 6 6 7 6 7 7 7 7 6 6 5 6 8 8 8 7 5 5 7
5 5 2 2 1 5 9 9 3 1 6 8 5 9 11 12 8 10 5 5 7 9 10 9 9 6 8 9 8 7 9 12 10 6 8 9 9 8 6 5 5 5 5 5 4 6 6 6 8 8 9 8 6 8 9 8 7 6 6 6 7 9 10 9 8 7 7 7 7 7 7 6 6 6 6 7 7 6 4 4 5 7 7 6 6 8
8 9 8 6 7 8 10 8 5 2 4 11 8 5 6 4 5 6 8 9 9 10 8 5 7 6 7 11 7 9 11 11 13 5 6 8 10 7 6 6 6 6 6 4 5 5 7 7 6 6 7 8 6 7 8 8 7 7 7 7 8 10 9 9 8 7 7 7 8 8 8 7 7 6 6 6 6 6 6 5 4 8 11 8 6 6
Wind_Direction
136 130 153 157 149 149 76 39 142 113 114 107 109 121 137 115 86 89 64 317 343 41 43 46 99 113 133 163 171 157 143 130 187 178 167 162 176 193 205 218 229 223 223 161 166 176 180 175 160 144 139 142 122 138 154 151 159 175 176 160 185 198 165 145 136 122 137 134 90 63 70 95 80 95 87 73 68 69 68 65 61 57 53 50 52 47
100 96 5 346 2 328 357 266 117 106 110 120 120 126 126 128 122 73 112 332 317 104 4 43 87 79 130 142 158 140 154 207 201 200 187 185 185 202 209 222 221 225 130 147 159 191 183 176 163 147 139 150 146 175 153 166 181 188 184 179 192 168 169 173 169 164 144 171 159 146 146 117 98 104 103 94 74 78 68 59 56 54 52 53 49 45
71 89 313 314 314 308 81 174 123 117 111 95 122 130 119 99 93 72 65 33 359 56 322 8 29 95 132 157 155 178 192 202 201 209 195 175 189 202 211 221 227 202 196 178 195 181 192 185 175 165 170 179 175 163 177 177 162 186 189 204 189 185 178 182 165 142 147 113 52 93 131 121 93 54 80 97 94 87 77 61 53 51 50 53 51 40
108 345 321 322 325 147 55 74 102 78 65 111 112 128 143 144 134 135 40 50 5 60 191 140 68 301 122 160 184 189 191 203 186 191 203 180 190 201 205 202 212 214 204 201 195 192 188 190 184 175 181 186 157 143 152 159 185 189 202 205 191 200 187 169 182 113 84 93 89 76 94 82 104 122 103 88 83 77 72 57 49 47 49 51 52 40
82 348 315 347 321 146 106 125 111 111 107 34 113 121 121 156 94 137 162 123 141 39 79 104 39 329 280 175 191 211 190 190 203 196 218 214 210 205 215 215 206 211 201 206 200 191 178 180 192 194 185 160 172 173 181 181 188 187 200 200 194 184 186 177 156 125 123 102 76 88 85 90 89 79 84 83 60 69 81 74 45 34 42 48 51 44
23 14 355 27 45 91 114 70 103 123 111 112 310 159 166 145 109 103 122 128 91 8 335 134 69 286 275 265 217 146 155 217 204 202 219 215 211 203 215 217 202 214 203 205 202 194 186 182 180 181 169 177 180 184 197 187 192 185 205 190 164 148 156 162 151 145 136 125 129 122 119 96 87 102 86 109 142 92 66 80 72 50 40 41 55 46
87 328 65 6 117 79 78 102 303 105 132 137 213 108 81 201 135 137 144 128 138 160 218 32 155 260 328 266 254 175 187 210 201 217 221 212 215 211 211 206 206 201 203 207 195 166 168 180 177 183 182 181 179 199 160 172 198 202 194 189 175 166 161 145 140 150 125 108 118 124 138 142 151 132 92 88 83 112 105 96 74 62 44 42 54 45
358 356 40 56 53 80 110 76 356 54 126 109 158 146 128 130 135 145 135 86 108 94 53 57 66 121 324 293 345 221 224 231 223 219 219 220 212 215 213 207 199 199 198 193 197 189 192 183 184 187 184 176 188 165 153 180 181 183 184 174 160 139 123 123 137 126 133 131 125 105 90 81 90 111 127 122 113 108 114 86 74 70 54 48 49 44
63 350 14 18 63 69 59 210 306 328 98 152 146 139 135 128 115 99 95 101 125 127 27 341 360 41 255 261 4 52 302 264 254 225 209 212 218 216 216 214 204 198 193 187 191 196 193 188 186 174 181 184 150 153 169 185 177 164 153 147 118 105 111 110 116 110 75 110 119 117 114 90 84 106 109 113 104 107 101 90 71 69 54 51 42 38
326 148 280 166 79 68 279 269 228 78 82 323 117 86 98 91 69 79 96 100 31 72 201 195 2 175 286 272 337 8 297 266 250 253 201 197 210 214 214 211 204 198 195 194 197 197 192 182 173 164 140 144 160 159 143 120 115 131 145 135 114 97 94 100 88 91 82 98 113 107 110 114 112 106 99 100 104 99 95 93 79 67 58 44 40 30
228 343 188 77 49 281 256 282 189 294 121 146 106 102 77 59 59 48 69 88 60 29 274 353 359 123 310 261 198 154 223 209 269 297 281 197 204 211 212 207 197 190 189 191 195 192 179 169 153 142 145 151 136 134 127 135 146 149 148 129 100 89 89 85 88 92 90 85 96 115 122 125 129 129 126 115 101 107 88 96 77 70 65 52 45 27
38 19 36 339 111 356 117 14 25 104 94 119 115 126 97 35 26 34 4 39 94 243 271 338 285 105 181 292 262 237 259 213 185 228 270 245 211 215 213 210 198 181 181 181 182 180 151 128 130 133 138 154 141 126 141 148 138 143 142 125 108 83 82 85 91 89 85 92 92 105 119 124 135 138 134 134 145 148 120 113 96 71 66 42 47 30
33 22 277 355 234 29 354 74 340 13 360 100 122 128 126 146 81 98 57 168 126 164 301 338 177 72 245 234 232 264 238 246 220 236 269 280 267 225 220 211 196 175 169 178 185 170 165 164 160 158 151 145 152 167 168 159 154 149 146 135 120 103 89 89 95 94 96 95 103 115 116 118 121 117 122 130 130 148 122 118 104 91 79 36 43 19
351 290 19 349 25 16 47 108 175 98 357 126 135 139 110 124 73 126 12 3 350 303 296 308 296 267 255 292 250 229 256 225 251 255 259 258 263 259 223 194 184 184 180 181 180 174 170 171 177 167 160 168 165 164 164 161 156 151 135 124 115 111 101 106 97 102 97 94 106 113 116 117 118 115 117 126 127 126 114 123 124 127 114 85 74 46
113 357 352 12 29 352 31 72 140 152 86 76 353 127 169 123 155 160 184 172 202 196 295 288 100 234 124 233 272 238 278 299 280 274 272 258 257 252 250 180 171 181 190 178 177 174 175 180 171 165 167 169 166 160 163 164 158 142 131 123 122 115 117 112 111 108 105 109 111 107 107 113 109 115 112 111 118 127 119 119 116 105 95 94 81 71
97 148 266 180 275 9 346 308 47 72 72 334 195 64 62 4 152 115 195 135 145 130 34 299 222 200 215 254 286 300 326 326 350 340 359 347 339 253 185 168 176 178 178 177 174 175 176 169 164 158 167 165 160 164 165 163 155 140 130 126 126 127 121 121 114 110 118 122 115 110 109 112 114 114 109 101 91 91 113 130 118 116 98 101 100 70
277 47 291 328 17 355 335 310 4 4 142 229 54 67 253 97 99 108 60 62 101 56 233 173 321 295 299 322 1 341 352 306 348 341 360 346 339 24 127 157 166 172 169 176 177 172 163 153 164 164 161 161 159 167 174 164 155 141 134 129 126 127 120 124 118 124 127 128 112 104 108 114 114 119 121 123 120 120 111 111 115 111 111 99 86 71
124 187 293 26 44 234 237 66 345 33 165 70 81 197 109 148 130 120 136 338 59 146 251 39 238 306 25 275 345 347 334 286 302 312 316 320 360 88 343 151 170 173 174 169 161 162 166 169 169 167 172 173 172 166 150 139 133 135 138 143 140 140 136 137 135 136 138 129 116 116 113 112 119 121 118 122 133 132 118 107 108 112 95 79 59 72
114 77 330 184 212 277 344 343 10 17 32 183 169 159 91 180 46 340 91 41 84 276 296 311 301 263 195 252 347 286 234 253 252 284 313 275 286 231 212 223 78 90 133 159 168 165 168 173 171 170 171 150 120 114 123 120 122 122 129 145 146 145 145 146 142 133 123 121 121 127 135 130 117 113 117 123 123 132 120 127 135 120 107 86 69 107
29 120 304 284 71 324 24 51 66 307 327 19 42 27 305 87 139 65 125 171 116 181 41 292 39 251 206 221 190 230 220 225 230 261 244 238 232 230 222 210 188 182 185 180 179 182 178 178 176 169 160 150 140 131 130 126 124 132 142 134 122 111 122 132 138 136 128 122 119 122 113 102 114 122 133 138 139 130 132 151 142 113 120 158 168 197
354 114 89 282 323 18 21 12 103 306 342 337 29 343 15 37 219 115 40 69 340 160 163 247 333 283 280 213 169 222 215 210 190 207 224 229 236 236 234 209 208 205 194 194 187 182 174 158 133 110 106 110 104 112 126 138 146 149 145 141 148 145 149 146 142 131 131 127 131 132 132 130 125 133 128 132 138 129 147 155 117 152 164 141 205 199
62 12 127 318 29 16 219 164 225 176 200 154 135 111 160 102 83 106 261 42 55 78 226 106 269 269 274 171 207 198 237 200 231 211 220 229 230 229 238 240 215 216 233 200 187 151 135 121 116 101 96 105 117 133 142 152 146 154 159 159 152 141 151 146 145 143 139 140 142 138 134 131 134 139 143 139 138 138 155 133 145 173 162 185 214 187
140 132 91 55 106 97 287 345 319 58 118 161 124 100 136 112 107 92 85 285 44 62 101 144 73 278 248 233 224 250 266 242 242 212 243 243 233 229 237 237 218 174 194 193 151 125 122 123 124 127 129 135 145 153 156 162 167 167 163 159 159 153 156 150 149 146 143 143 144 138 128 135 149 148 153 139 149 157 158 150 183 176 183 198 208 228
84 70 57 316 314 312 311 311 239 52 149 88 28 87 70 27 69 165 159 174 130 125 39 3 236 251 286 230 245 254 271 283 279 211 236 258 263 258 242 245 234 245 71 105 95 97 106 115 120 124 134 141 152 167 176 177 172 167 165 164 155 156 149 146 149 145 143 143 137 129 134 152 153 153 157 150 176 171 171 175 187 189 193 200 200 200
41 298 114 63 5 336 343 349 357 322 71 84 268 342 84 76 60 152 101 45 83 220 162 102 261 296 272 354 299 269 308 302 290 267 198 231 249 241 234 243 234 213 166 151 141 131 118 127 148 163 167 171 175 180 180 178 177 171 170 162 162 153 158 150 147 147 152 151 138 141 155 163 163 165 164 169 185 180 179 188 193 198 196 184 209 223
88 178 89 124 141 147 214 256 244 235 234 259 71 45 338 104 129 46 154 5 67 294 106 167 258 255 271 322 320 234 309 289 270 267 270 225 233 226 224 226 217 200 206 188 165 143 170 178 175 175 184 187 189 184 182 180 173 174 168 170 161 153 155 155 151 156 155 150 145 162 173 169 173 177 172 184 188 185 188 184 194 198 204 183 186 234
119 92 87 151 145 184 203 215 257 307 352 161 263 151 212 24 104 84 105 84 246 182 183 235 193 310 311 325 330 306 304 254 248 288 279 255 253 246 226 215 207 205 203 197 187 183 157 183 198 197 194 195 190 187 182 177 178 176 169 166 167 164 158 157 160 165 160 154 161 171 181 176 188 180 181 191 188 183 181 189 198 192 201 196 176 170
76 71 10 109 98 186 189 190 303 351 165 284 64 262 262 156 168 136 151 223 174 79 305 267 218 170 262 285 281 311 307 265 255 251 262 258 242 218 207 203 202 206 206 173 180 187 197 201 200 199 200 196 197 189 187 189 186 179 176 176 170 161 157 159 163 167 160 161 178 187 185 186 190 182 189 190 177 182 185 190 195 206 192 160 173 189
132 129 266 82 234 264 246 261 315 331 217 225 218 210 231 206 153 182 235 212 152 192 223 233 156 231 262 232 245 257 246 260 239 226 220 220 200 185 174 189 198 208 205 199 207 204 200 200 200 200 199 200 189 193 194 190 188 178 174 162 166 162 172 165 165 165 165 176 190 198 185 180 193 189 187 180 174 184 189 194 202 199 182 178 194 165
91 69 205 104 178 20 39 337 350 155 310 290 237 224 215 170 207 209 240 216 196 237 246 215 222 257 262 270 263 261 237 222 241 220 285 198 205 191 192 203 207 211 206 210 211 208 207 205 196 198 196 199 200 197 194 192 192 188 182 177 171 173 171 162 174 164 175 191 201 188 177 181 187 188 183 176 184 191 188 194 201 194 187 198 184 157
91 269 95 246 73 292 332 348 60 40 79 302 270 233 209 217 269 233 259 275 52 295 270 261 275 288 273 209 250 280 334 212 296 266 230 222 222 201 201 212 217 216 218 220 217 213 205 202 200 198 204 208 202 200 195 196 194 185 187 180 174 178 173 172 168 175 183 200 196 179 173 180 191 184 190 187 182 189 187 198 199 196 197 196 182 189
62 160 65 76 54 313 5 11 319 5 188 207 279 271 216 182 238 197 198 205 159 222 139 87 298 259 278 342 286 302 355 203 238 251 253 231 207 205 209 221 221 222 221 220 218 207 199 201 202 205 209 207 203 199 197 196 192 183 195 181 181 175 165 173 174 183 195 201 180 177 181 189 186 191 196 177 192 194 196 195 196 200 198 194 217 220
76 128 126 81 75 265 273 51 347 343 359 326 272 240 217 210 165 51 279 212 214 154 150 195 234 230 245 183 325 294 218 258 272 255 258 261 220 207 215 219 223 225 223 219 212 207 206 204 206 208 209 203 202 201 205 191 182 197 190 183 180 152 169 179 182 189 197 196 183 186 188 185 189 197 192 191 189 195 190 195 203 206 196 214 215 171
57 85 116 286 139 255 311 329 319 16 352 248 234 226 156 178 202 212 232 210 218 172 207 195 239 265 301 222 202 245 234 232 218 245 218 230 203 217 233 234 232 228 230 229 221 216 216 211 212 211 206 205 205 204 194 188 196 195 176 163 151 167 175 177 189 192 199 192 193 189 188 188 194 200 197 177 186 193 197 200 212 207 201 193 177 205
98 75 99 170 80 292 326 349 26 301 238 240 237 273 243 271 184 205 243 253 221 220 254 279 268 260 244 226 235 241 245 270 272 271 277 240 217 214 219 225 227 221 221 220 220 219 215 211 212 212 211 211 204 195 180 196 193 156 152 158 166 175 172 186 188 198 199 196 196 189 188 192 198 203 188 178 189 198 206 210 215 206 203 193 206 213
138 110 171 42 105 40 49 36 94 239 233 271 279 337 225 108 134 152 298 262 232 213 209 233 251 256 266 260 256 252 262 282 299 261 253 249 202 213 217 229 226 214 221 219 214 218 211 207 206 204 209 205 185 187 189 193 173 166 173 166 171 173 181 183 192 201 197 201 197 196 193 190 200 201 184 180 191 204 214 212 212 210 197 195 216 224
133 111 104 110 39 193 182 166 237 300 325 1 14 216 179 172 174 163 241 288 221 195 178 217 248 266 275 267 274 282 292 318 311 296 249 242 226 215 217 229 219 219 221 229 212 222 216 215 211 213 205 187 188 184 194 179 167 169 157 168 177 174 182 184 197 202 200 204 200 198 192 192 196 197 186 184 193 210 215 211 216 213 176 194 212 222
36 129 229 126 280 121 133 343 342 13 296 284 246 289 217 198 153 209 99 294 298 232 200 191 230 251 262 293 310 288 319 37 338 305 306 343 239 218 237 249 259 246 231 237 231 235 219 211 211 206 187 193 196 198 181 166 167 164 167 175 173 176 185 192 206 203 200 206 202 196 190 191 193 194 188 184 203 212 215 210 206 203 184 196 207 221
36 74 111 126 144 66 55 125 219 182 252 209 243 274 266 178 154 143 63 308 269 204 199 185 223 243 228 212 192 105 79 3 255 262 273 270 285 221 222 244 241 242 238 225 211 216 213 209 199 195 186 187 197 194 171 167 164 166 178 178 178 183 189 202 207 200 203 206 199 191 185 188 193 195 188 195 210 209 208 203 202 186 173 202 197 215
48 356 35 38 68 150 130 118 260 202 236 219 223 257 225 159 136 57 7 288 260 207 189 176 211 232 228 187 158 147 133 207 265 260 240 228 247 253 205 252 262 251 251 240 237 224 211 180 154 172 190 196 203 174 167 164 169 179 180 184 175 186 203 208 205 202 201 196 188 184 182 186 194 197 192 201 208 208 211 182 167 182 184 201 197 209
67 11 45 197 166 179 150 271 319 295 270 254 235 220 144 208 77 62 200 236 242 177 188 182 211 213 158 153 174 165 234 202 206 227 300 309 321 294 255 243 249 252 257 243 236 213 190 189 188 194 195 196 183 168 168 165 172 184 186 177 182 203 211 205 191 189 195 185 179 181 188 190 195 197 201 198 201 197 187 181 188 179 187 194 193 191
352 97 316 84 110 163 189 181 241 259 246 175 301 163 189 111 143 187 236 203 154 204 199 190 202 205 175 177 191 217 245 249 286 291 283 273 249 267 283 285 293 281 253 238 230 198 202 192 203 203 202 192 174 168 167 169 178 188 180 183 202 214 200 172 184 183 179 182 186 188 188 195 198 197 195 188 177 181 199 192 179 186 186 180 179 200
190 143 196 171 185 69 46 59 359 338 285 129 135 68 143 134 230 206 237 256 198 191 170 213 210 219 174 218 225 231 261 281 276 281 284 288 285 280 281 278 270 274 283 244 219 215 189 199 204 205 196 179 171 169 173 172 182 183 187 196 215 199 165 180 172 177 181 183 186 190 194 195 191 190 182 186 187 185 192 175 175 181 171 175 186 205
208 133 240 264 191 149 147 155 204 212 210 196 155 176 217 211 182 183 149 243 217 174 187 201 234 209 200 204 224 237 246 265 292 271 276 273 264 274 281 274 263 265 267 252 225 200 191 205 210 209 195 177 173 172 174 177 183 187 190 215 201 150 165 164 175 169 178 186 192 191 197 194 190 185 183 184 178 183 177 178 182 176 188 181 186 205
212 178 178 168 211 148 192 216 241 233 208 221 218 216 214 241 217 184 172 224 206 246 186 167 232 208 200 210 229 235 270 241 242 264 274 277 291 288 289 284 272 264 251 237 230 192 178 197 200 200 197 191 179 179 181 186 183 186 206 213 147 177 169 171 165 173 183 190 192 195 195 182 184 184 185 184 173 179 183 175 167 183 202 176 194 204
314 187 175 95 244 265 261 229 237 285 252 265 255 245 250 276 269 172 203 247 243 212 178 196 222 205 207 205 215 256 226 254 263 271 260 264 272 278 275 285 273 246 238 238 219 184 184 178 175 181 196 203 197 187 188 193 187 191 213 166 170 169 169 160 168 179 192 190 191 194 178 182 189 184 186 182 185 189 182 177 180 192 183 186 206 209
246 157 149 214 269 60 271 353 179 238 230 228 242 265 268 242 241 193 219 221 252 211 221 247 240 226 195 174 206 239 256 246 254 267 265 271 272 270 274 273 276 245 219 216 214 168 174 174 178 190 192 199 203 196 195 197 207 211 158 170 170 162 161 168 174 186 186 192 190 181 178 188 189 186 184 183 180 181 171 170 175 183 187 192 201 212
281 178 157 218 143 178 234 242 249 249 242 242 228 250 260 259 249 223 226 242 247 246 228 242 207 253 176 222 224 229 258 265 258 270 277 269 262 267 268 260 263 267 247 226 199 186 179 187 192 194 194 205 199 196 195 201 208 203 175 164 161 159 160 171 181 185 191 189 184 185 187 195 188 182 186 189 179 179 179 186 180 188 199 196 197 199
163 129 219 171 185 271 312 279 267 276 281 264 237 229 240 245 252 262 237 245 252 259 260 255 211 233 196 236 219 221 253 263 248 253 265 274 277 272 261 258 248 243 240 214 209 186 197 197 201 202 199 210 190 189 197 206 205 193 182 172 161 161 167 179 186 187 185 181 175 194 190 195 189 192 185 181 191 204 193 183 191 206 226 226 193 192
102 209 207 102 267 279 225 245 135 133 292 298 274 224 227 237 233 252 274 267 248 242 250 256 262 230 235 240 231 220 235 259 262 236 249 255 262 267 274 265 255 242 241 224 193 198 211 212 207 205 209 212 185 188 198 203 201 193 184 166 167 165 174 176 174 182 190 182 188 190 182 193 196 189 185 181 184 187 238 253 207 210 207 227 206 214
183 195 151 189 168 237 244 228 201 178 245 248 247 243 223 206 177 210 229 235 246 236 238 226 263 278 243 244 220 212 233 241 257 243 245 260 259 255 250 251 252 244 238 209 190 211 211 215 211 215 220 212 187 191 194 198 196 190 185 176 174 175 177 167 173 187 190 183 199 193 189 187 192 193 187 183 172 175 191 228 248 232 232 228 199 205